KOREASAT 5 (MUGUNGWHA 5)

Last updated on Fri Dec 19 2025 00:02:49 GMT+0000 (Coordinated Universal Time)

1 29349U 06034A 25352.61974525 -.00000334 00000+0 00000+0 0 9995 2 29349 1.3168 85.4762 0001793 221.6515 116.5105 1.00270106 39505
UTC large
Height (km)
Speed (km/s)
/
Latitude / Longitude
Inclination (degrees)
Orbital Period (minutes)
Azimuth
Elevation
Range (km)
Doppler Factor

Next 0 passes for location: London (51.5072 / 0.1276)

Sorry there are no passes over London.